Weather History for Crestview, FL

Change the Weather History Date:

Tuesday, November 20, 2012

  Actual Average Record
Temperature  
Mean Temperature 53 °F -  
Max Temperature 67 °F - - ()
Min Temperature 39 °F - - ()
Degree Days  
Heating Degree Days 12    
Growing Degree Days 3 (Base 50)    
Moisture  
Dew Point 48 °F    
Average Humidity 81    
Maximum Humidity 97    
Minimum Humidity 55    
Precipitation  
Precipitation 0.00 in - - ()
Sea Level Pressure  
Sea Level Pressure 30.14 in    
Wind  
Wind Speed 2 mph (NNW)    
Max Wind Speed 7 mph    
Max Gust Speed -    
Visibility 10 miles    
Events      
T = Trace of Precipitation, MM = Missing Value Source: NWS Daily Summary

Daily Weather History Graph

Daily Weather History Graph

Search for Another Location

Airport:

Trip Planner

Search our weather history database for the weather conditions in past years. The results will help you decide how hot, cold, wet, or windy it might be!

Date:

Astronomy

Nov. 20, 2012 Rise Set
Actual Time 6:16 AM CST 4:46 PM CST
Civil Twilight 5:51 AM CST 5:12 PM CST
Nautical Twilight 5:21 AM CST 5:41 PM CST
Astronomical Twilight 4:53 AM CST 6:10 PM CST
Moon 12:05 PM CST (11/20) No Moon Set
Length of Visible Light 11h 21m
Length of Day
10h 29m
First Quarter, 51% of the Moon is Illuminated
Nov 20
First Quarter
Nov 28
Full
Dec 6
Last Quarter
Dec 13
New
Dec 19
First Quarter

Hourly Weather History & Observations

Time (CST) Temp. Dew Point Humidity Pressure Visibility Wind Dir Wind Speed Gust Speed Precip Events Conditions
12:55 AM 42.3 °F 40.5 °F 93% 30.16 in 10.0 mi Calm Calm - N/A   Clear
1:55 AM 41.0 °F 39.6 °F 95% 30.16 in 10.0 mi Calm Calm - N/A   Clear
2:55 AM 39.9 °F 38.3 °F 94% 30.16 in 10.0 mi Calm Calm - N/A   Clear
3:55 AM 39.7 °F 38.3 °F 95% 30.15 in 10.0 mi Calm Calm - N/A   Clear
4:55 AM 40.5 °F 39.2 °F 95% 30.16 in 10.0 mi Calm Calm - N/A   Partly Cloudy
5:55 AM 42.1 °F 39.9 °F 92% 30.17 in 10.0 mi Calm Calm - N/A   Scattered Clouds
6:55 AM 42.8 °F 41.9 °F 97% 30.18 in 10.0 mi Calm Calm - N/A   Clear
7:55 AM 49.6 °F 45.9 °F 87% 30.20 in 10.0 mi NNW 3.5 mph - N/A   Clear
8:55 AM 59.0 °F 50.2 °F 73% 30.19 in 10.0 mi NNE 3.5 mph - N/A   Mostly Cloudy
9:55 AM 64.6 °F 52.5 °F 65% 30.20 in 10.0 mi NW 2.3 mph - N/A   Mostly Cloudy
10:55 AM 66.7 °F 53.2 °F 62% 30.17 in 10.0 mi North 5.8 mph - N/A   Mostly Cloudy
11:58 AM 67.1 °F 51.6 °F 57% 30.14 in 10.0 mi Variable 5.8 mph - N/A   Mostly Cloudy
12:55 PM 67.5 °F 50.9 °F 55% 30.12 in 10.0 mi NNE 6.9 mph - N/A   Mostly Cloudy
1:55 PM 66.6 °F 51.8 °F 59% 30.10 in 10.0 mi NNW 5.8 mph - N/A   Mostly Cloudy
2:55 PM 67.3 °F 50.7 °F 55% 30.10 in 10.0 mi Variable 4.6 mph - N/A   Mostly Cloudy
3:55 PM 65.1 °F 51.3 °F 61% 30.10 in 10.0 mi NNW 4.6 mph - N/A   Mostly Cloudy
4:48 PM 62.6 °F 53.6 °F 72% 30.10 in 10.0 mi North 5.8 mph - N/A   Light Drizzle
4:55 PM 62.2 °F 53.2 °F 72% 30.11 in 10.0 mi NNW 5.8 mph - 0.00 in   Light Drizzle
5:33 PM 59.0 °F 53.6 °F 82% 30.10 in 10.0 mi Calm Calm - N/A   Mostly Cloudy
5:55 PM 58.8 °F 54.0 °F 84% 30.12 in 10.0 mi NW 3.5 mph - 0.00 in   Mostly Cloudy
6:55 PM 57.0 °F 52.3 °F 84% 30.14 in 10.0 mi WNW 4.6 mph - N/A   Scattered Clouds
7:55 PM 56.3 °F 52.5 °F 87% 30.13 in 10.0 mi NW 3.5 mph - N/A   Scattered Clouds
8:55 PM 52.0 °F 51.1 °F 97% 30.13 in 10.0 mi Calm Calm - N/A   Scattered Clouds
9:55 PM 52.2 °F 51.1 °F 96% 30.15 in 10.0 mi NW 3.5 mph - N/A   Mostly Cloudy
10:55 PM 52.5 °F 51.1 °F 95% 30.14 in 10.0 mi Calm Calm - N/A   Mostly Cloudy
11:55 PM 50.4 °F 49.3 °F 96% 30.14 in 10.0 mi NW 3.5 mph - N/A   Mostly Cloudy